Regional Weather Roundup
Issued by NWS

Home | Current Version | Previous Version | Text Only | Print | Product List | Glossary On
Versions: 1 2 3 4 5 6 7 8 9 10 11 12 13 14 15 16 17 18 19 20 21 22 23 24 25 26 27 28 29 30 31 32 33 34 35 36 37 38 39 40 41 42 43 44 45 46 47 48 49 50
000
ASUS43 KTOP 221708
RWRKS

WEATHER ROUNDUP FOR KANSAS
NATIONAL WEATHER SERVICE GOODLAND KS
1200 PM CDT TUE MAY 22 2018

NOTE:  "FAIR" INDICATES FEW OR NO CLOUDS BELOW 12,000 FEET WITH NO
SIGNIFICANT WEATHER AND/OR OBSTRUCTIONS TO VISIBILITY.

KSZ001>006-013>018-027>032-041>047-221800-
NORTHWEST KANSAS

CITY           SKY/WX    TMP DP  RH WIND       PRES   REMARKS
GOODLAND       PTSUNNY   75  54  47 S22G30    29.96F
HAYS           SUNNY     83  60  45 S13       29.98S
HILL CITY      SUNNY     81  61  50 S9        29.97F
RUSSELL        SUNNY     83  65  54 S16       29.97F
$$

KSZ061>065-074>080-084>089-221800-
SOUTHWEST KANSAS

CITY           SKY/WX    TMP DP  RH WIND       PRES   REMARKS
DODGE CITY     SUNNY     83  61  47 S16G26    29.99F
ELKHART        PTSUNNY   77  53  42 S16G23    30.03S
GARDEN CITY    CLOUDY    79  57  46 S21G28    29.97F
GREAT BEND     SUNNY     83  64  52 SW14G22   30.00S
LIBERAL          N/A     82  56  40 S15G24    30.00S
PRATT          SUNNY     80  64  56 S12G17    30.01F
$$

KSZ066>073-081>083-090>101-221800-
SOUTHEAST KANSAS

CITY           SKY/WX    TMP DP  RH WIND       PRES   REMARKS
CHANUTE        PTSUNNY   81  69  67 S7        30.06S
COFFEYVILLE    MOSUNNY   81  68  64 S5        30.03F
HUTCHINSON     SUNNY     82  66  58 SW14      30.01S
MEDICINE LODGE   N/A     83  65  54 S9G16     29.99F
NEWTON         SUNNY     81  65  58 S12G17    30.03F
PARSONS        MOSUNNY   82  69  64 VRB6      30.06S
WICHITA INTL   MOSUNNY   82  68  62 SW12      30.02S
WICHITA JABRA  SUNNY     80  67  64 S9        30.02F
WICHITA MCCONL MOSUNNY   81  66  59 SW9       30.02
WINFIELD       MOSUNNY   80  67  64 SW10      30.04S
$$

KSZ007>012-019>026-033>040-048>060-102>105-221800-
NORTHEAST KANSAS

CITY           SKY/WX    TMP DP  RH WIND       PRES   REMARKS
CONCORDIA      SUNNY     81  65  58 S14       30.00S
EMPORIA        MOSUNNY   79  67  66 S7        30.04F
LAWRENCE       SUNNY     81  66  60 CALM      30.04F
MANHATTAN      SUNNY     83  64  52 SW9       30.00F
OLATHE IND     SUNNY     80  65  59 VRB6      30.06F
OLATHE EXE     SUNNY     78  65  63 SE8       30.06F
SALINA         SUNNY     84  65  52 S13       30.01S
TOPEKA BILLARD MOSUNNY   81  67  62 S8        30.03F
TOPEKA FORBES  SUNNY     82  67  60 S8        30.04F
$$



USA.gov is the U.S. government's official web portal to all federal, state and local government web resources and services.